HOME
ABOUT US
SERVICES
WEATHER INFORMATION
MEDIA CENTER
CARGO SERVICES
ENTRY PASS
TOURIST INFORMATION
CAREERS
AIRPORT MANAGEMENT TEAM
CONTACT US
 
  SUBMIT
 
 
WEATHER - TAF
The most recent TAF in our system was generated at the source at:

01/08/2015 11:47:43  UTC

TAF OMFJ 010500Z 0106/0212 10010KT 7000 NSC TEMPO 0109/0114 20016KT 5000 TSRA FEW030CB BKN040 BECMG 0120/0122 29007KT TEMPO 0200/0205 VRB03KT 5000 HZ SCT020 BECMG 0206/0208 14010KT

The information available here could be used for flight planning or other operational purposes. For further information on this aspect, please contact Fujairah International Airport Authority.

For further enquiries, please contact MET Section of Airport at :-
Email : met@fujairah-airport.com
Tel : +971 9 2055507
Fax : +971 9 2223149
Contat Us | Suggestions & Complaints | Links | Location Map | Employee Mail Copyright (c) 2013 Fujairah International Airport | All Rights Reserved.